Total_Precipitation_Accumulation
0.93 1.03 1.06 0.85 0.60 0.49 0.47 0.45 0.44 0.47 0.52 0.60 0.55 0.52 0.57 0.60 0.57 0.63 0.72 0.81 0.87 0.89 0.89 0.91 0.94 0.95 0.99 1.00 1.03 1.03 1.00 0.90 0.70 0.60 0.46 0.38 0.40 0.41 0.42 0.36 0.33 0.31 0.27
0.80 0.78 0.65 0.47 0.37 0.34 0.30 0.25 0.22 0.22 0.22 0.29 0.32 0.32 0.40 0.50 0.51 0.56 0.59 0.59 0.62 0.65 0.65 0.68 0.71 0.72 0.78 0.81 0.83 0.85 0.89 0.90 0.80 0.69 0.55 0.42 0.39 0.43 0.50 0.49 0.45 0.43 0.42
0.44 0.42 0.39 0.32 0.30 0.26 0.21 0.19 0.17 0.16 0.16 0.20 0.23 0.26 0.29 0.38 0.49 0.55 0.56 0.51 0.48 0.44 0.42 0.44 0.49 0.53 0.58 0.61 0.62 0.68 0.74 0.78 0.79 0.70 0.65 0.56 0.45 0.39 0.44 0.45 0.47 0.56 0.56
0.25 0.23 0.22 0.22 0.23 0.23 0.23 0.23 0.18 0.14 0.15 0.15 0.14 0.16 0.24 0.34 0.42 0.50 0.53 0.48 0.44 0.42 0.41 0.38 0.37 0.37 0.39 0.46 0.54 0.65 0.72 0.80 0.83 0.76 0.75 0.70 0.60 0.49 0.45 0.51 0.58 0.64 0.64
0.15 0.15 0.18 0.18 0.18 0.18 0.20 0.20 0.17 0.14 0.11 0.08 0.06 0.08 0.16 0.21 0.26 0.39 0.44 0.42 0.43 0.40 0.39 0.41 0.39 0.34 0.31 0.33 0.34 0.43 0.52 0.67 0.74 0.78 0.79 0.78 0.72 0.60 0.52 0.56 0.62 0.71 0.74
0.03 0.05 0.08 0.11 0.13 0.15 0.15 0.15 0.13 0.11 0.09 0.07 0.05 0.05 0.07 0.08 0.13 0.20 0.28 0.37 0.43 0.45 0.43 0.45 0.41 0.35 0.36 0.32 0.29 0.29 0.35 0.41 0.48 0.53 0.59 0.65 0.69 0.70 0.72 0.69 0.69 0.69 0.73
0.01 0.01 0.02 0.03 0.04 0.05 0.05 0.05 0.05 0.04 0.04 0.03 0.03 0.04 0.04 0.03 0.04 0.07 0.16 0.31 0.43 0.43 0.41 0.51 0.57 0.51 0.47 0.48 0.46 0.35 0.29 0.28 0.33 0.39 0.48 0.53 0.54 0.57 0.66 0.72 0.75 0.77 0.67
0.00 0.00 0.00 0.01 0.01 0.02 0.02 0.02 0.02 0.02 0.02 0.02 0.04 0.06 0.04 0.01 0.01 0.02 0.07 0.20 0.32 0.36 0.35 0.45 0.67 0.68 0.62 0.59 0.63 0.66 0.52 0.36 0.34 0.33 0.41 0.42 0.41 0.51 0.66 0.75 0.71 0.55 0.46
0.00 0.00 0.00 0.00 0.01 0.01 0.01 0.01 0.00 0.01 0.02 0.02 0.03 0.05 0.04 0.03 0.02 0.02 0.05 0.14 0.21 0.26 0.29 0.41 0.54 0.65 0.64 0.64 0.62 0.63 0.59 0.46 0.40 0.37 0.30 0.30 0.32 0.41 0.54 0.63 0.62 0.52 0.41
0.00 0.00 0.00 0.00 0.01 0.01 0.01 0.01 0.01 0.01 0.02 0.02 0.01 0.01 0.01 0.01 0.02 0.03 0.03 0.07 0.10 0.11 0.17 0.29 0.45 0.48 0.47 0.53 0.59 0.66 0.71 0.53 0.41 0.42 0.39 0.37 0.36 0.46 0.65 0.74 0.71 0.59 0.45
0.00 0.00 0.01 0.01 0.01 0.02 0.02 0.02 0.01 0.01 0.02 0.02 0.02 0.02 0.02 0.01 0.02 0.03 0.05 0.05 0.07 0.07 0.10 0.20 0.26 0.31 0.32 0.40 0.49 0.59 0.70 0.55 0.51 0.55 0.51 0.44 0.46 0.48 0.56 0.60 0.65 0.66 0.54
0.00 0.01 0.01 0.01 0.01 0.01 0.03 0.02 0.01 0.01 0.02 0.03 0.05 0.05 0.05 0.04 0.02 0.03 0.05 0.06 0.07 0.07 0.11 0.16 0.18 0.19 0.20 0.25 0.31 0.41 0.52 0.56 0.57 0.61 0.57 0.45 0.42 0.44 0.41 0.42 0.46 0.47 0.44
0.00 0.01 0.00 0.01 0.01 0.01 0.01 0.01 0.01 0.01 0.01 0.02 0.04 0.06 0.06 0.07 0.04 0.02 0.03 0.05 0.06 0.09 0.11 0.14 0.15 0.17 0.20 0.22 0.25 0.32 0.44 0.57 0.67 0.62 0.52 0.40 0.35 0.37 0.37 0.38 0.41 0.42 0.36
0.00 0.00 0.00 0.00 0.01 0.02 0.01 0.00 0.01 0.01 0.01 0.01 0.02 0.04 0.05 0.07 0.04 0.03 0.05 0.07 0.07 0.09 0.10 0.11 0.11 0.17 0.21 0.20 0.25 0.35 0.48 0.62 0.68 0.56 0.45 0.33 0.29 0.36 0.38 0.33 0.30 0.29 0.27
0.00 0.00 0.00 0.00 0.01 0.02 0.01 0.00 0.00 0.00 0.00 0.01 0.02 0.03 0.02 0.03 0.02 0.01 0.03 0.04 0.05 0.05 0.09 0.14 0.16 0.21 0.25 0.31 0.41 0.49 0.50 0.49 0.52 0.46 0.42 0.35 0.31 0.34 0.31 0.25 0.20 0.16 0.15
0.00 0.00 0.00 0.00 0.01 0.01 0.02 0.01 0.00 0.00 0.00 0.00 0.00 0.01 0.02 0.00 0.00 0.01 0.01 0.02 0.02 0.04 0.12 0.19 0.25 0.31 0.34 0.41 0.47 0.49 0.49 0.46 0.45 0.42 0.36 0.31 0.26 0.24 0.22 0.17 0.14 0.12 0.12
0.00 0.00 0.00 0.00 0.00 0.00 0.01 0.03 0.03 0.02 0.01 0.00 0.00 0.00 0.00 0.00 0.00 0.01 0.01 0.02 0.02 0.04 0.10 0.20 0.39 0.43 0.38 0.42 0.44 0.43 0.35 0.29 0.26 0.25 0.21 0.16 0.11 0.09 0.09 0.09 0.07 0.06 0.05
0.00 0.00 0.00 0.00 0.00 0.00 0.00 0.00 0.01 0.03 0.04 0.04 0.02 0.00 0.00 0.00 0.00 0.01 0.01 0.03 0.03 0.03 0.05 0.12 0.24 0.27 0.29 0.31 0.29 0.26 0.19 0.13 0.12 0.08 0.06 0.04 0.03 0.03 0.03 0.02 0.02 0.02 0.02
0.00 0.00 0.00 0.00 0.00 0.00 0.00 0.00 0.00 0.00 0.01 0.03 0.03 0.01 0.00 0.00 0.00 0.00 0.01 0.02 0.03 0.04 0.06 0.10 0.13 0.15 0.14 0.13 0.11 0.09 0.07 0.05 0.04 0.03 0.02 0.02 0.02 0.02 0.01 0.01 0.01 0.00 0.01
0.00 0.00 0.00 0.00 0.00 0.00 0.00 0.00 0.00 0.00 0.01 0.01 0.01 0.01 0.01 0.02 0.03 0.02 0.01 0.02 0.02 0.03 0.04 0.05 0.05 0.05 0.04 0.03 0.02 0.02 0.02 0.01 0.01 0.01 0.01 0.01 0.01 0.01 0.01 0.01 0.01 0.01 0.01
0.00 0.00 0.00 0.00 0.00 0.00 0.00 0.00 0.00 0.00 0.01 0.01 0.00 0.00 0.00 0.01 0.01 0.02 0.02 0.01 0.01 0.02 0.01 0.01 0.01 0.00 0.01 0.01 0.01 0.01 0.01 0.00 0.00 0.00 0.00 0.01 0.02 0.02 0.01 0.01 0.01 0.01 0.01
0.00 0.00 0.00 0.00 0.00 0.00 0.00 0.00 0.01 0.01 0.01 0.01 0.00 0.00 0.00 0.01 0.01 0.01 0.01 0.01 0.01 0.00 0.00 0.00 0.00 0.00 0.00 0.00 0.00 0.00 0.00 0.00 0.00 0.00 0.00 0.01 0.01 0.01 0.01 0.01 0.00 0.00 0.00
0.00 0.00 0.00 0.00 0.00 0.00 0.00 0.00 0.01 0.01 0.02 0.01 0.01 0.01 0.01 0.01 0.01 0.01 0.01 0.00 0.00 0.00 0.00 0.00 0.00 0.00 0.00 0.00 0.00 0.00 0.00 0.00 0.00 0.00 0.01 0.01 0.01 0.01 0.00 0.00 0.00 0.00 0.00
0.00 0.00 0.00 0.00 0.00 0.00 0.00 0.00 0.00 0.01 0.02 0.02 0.02 0.01 0.01 0.01 0.01 0.01 0.01 0.00 0.00 0.00 0.00 0.00 0.00 0.00 0.00 0.00 0.00 0.00 0.00 0.00 0.00 0.01 0.01 0.01 0.01 0.00 0.00 0.00 0.00 0.00 0.00
0.00 0.00 0.00 0.00 0.00 0.00 0.00 0.00 0.00 0.01 0.02 0.02 0.02 0.02 0.01 0.01 0.01 0.01 0.01 0.00 0.00 0.00 0.00 0.00 0.00 0.00 0.00 0.00 0.00 0.00 0.00 0.00 0.00 0.00 0.00 0.00 0.00 0.00 0.00 0.00 0.00 0.00 0.00
0.00 0.00 0.00 0.00 0.00 0.00 0.00 0.00 0.00 0.01 0.02 0.02 0.01 0.01 0.01 0.00 0.00 0.00 0.00 0.00 0.00 0.00 0.00 0.00 0.00 0.00 0.00 0.00 0.00 0.00 0.00 0.00 0.00 0.00 0.00 0.00 0.00 0.00 0.00 0.00 0.00 0.00 0.00